Time,TemperatureF,DewpointF,PressureIn,WindDirection,WindDirectionDegrees,WindSpeedMPH,WindSpeedGustMPH,Humidity,HourlyPrecipIn,Conditions,Clouds,dailyrainin,SoftwareType,DateUTC
2013-01-16 00:03:00,50.0,48.0,29.89,ESE,109,1.0,3.0,93,0.00,,,1.05,,2013-01-16 05:03:00,
2013-01-16 00:12:00,50.0,48.0,29.89,ESE,109,1.0,3.0,93,0.00,,,1.05,,2013-01-16 05:12:00,
2013-01-16 00:22:00,51.0,49.0,29.88,ENE,65,2.0,3.0,93,0.00,,,1.05,,2013-01-16 05:22:00,
2013-01-16 00:32:00,51.0,49.0,29.88,East,84,4.0,7.0,93,0.00,,,1.04,,2013-01-16 05:32:00,
2013-01-16 00:42:00,51.0,49.0,29.88,East,84,4.0,7.0,93,0.00,,,1.04,,2013-01-16 05:42:00,
2013-01-16 00:53:00,52.0,50.0,29.88,ENE,75,2.0,10.0,93,0.00,,,1.04,,2013-01-16 05:53:00,
2013-01-16 01:02:00,52.0,50.0,29.88,SSE,167,1.0,7.0,92,0.00,,,1.04,,2013-01-16 06:02:00,
2013-01-16 01:12:00,52.0,50.0,29.88,SSE,167,1.0,7.0,92,0.00,,,1.04,,2013-01-16 06:12:00,
2013-01-16 01:22:00,52.0,50.0,29.87,ESE,105,1.0,5.0,92,0.00,,,1.04,,2013-01-16 06:22:00,
2013-01-16 01:32:00,52.0,50.0,29.87,ESE,109,1.0,3.0,92,0.00,,,1.04,,2013-01-16 06:32:00,
2013-01-16 01:43:00,52.0,50.0,29.87,ESE,109,1.0,3.0,92,0.00,,,1.04,,2013-01-16 06:43:00,
2013-01-16 01:53:00,52.0,50.0,29.87,ESE,109,0.0,3.0,92,0.00,,,1.04,,2013-01-16 06:53:00,
2013-01-16 02:02:00,52.0,50.0,29.87,SSW,213,0.0,5.0,92,0.00,,,1.04,,2013-01-16 07:02:00,
2013-01-16 02:12:00,52.0,50.0,29.87,SSW,213,0.0,5.0,92,0.00,,,1.04,,2013-01-16 07:12:00,
2013-01-16 02:22:00,52.0,50.0,29.88,SW,222,0.0,3.0,92,0.00,,,1.04,,2013-01-16 07:22:00,
2013-01-16 02:33:00,52.0,50.0,29.89,SW,222,0.0,1.0,92,0.01,,,1.04,,2013-01-16 07:33:00,
2013-01-16 02:42:00,52.0,50.0,29.89,SW,222,0.0,1.0,92,0.01,,,1.04,,2013-01-16 07:42:00,
2013-01-16 02:52:00,52.0,50.0,29.88,SW,220,0.0,3.0,93,0.02,,,1.04,,2013-01-16 07:52:00,
2013-01-16 03:02:00,52.0,50.0,29.88,ESE,104,0.0,3.0,93,0.02,,,1.04,,2013-01-16 08:02:00,
2013-01-16 03:12:00,52.0,50.0,29.88,ESE,104,0.0,3.0,93,0.02,,,1.04,,2013-01-16 08:12:00,
2013-01-16 03:22:00,51.0,49.0,29.88,ESE,104,0.0,0.0,93,0.02,,,1.03,,2013-01-16 08:22:00,
2013-01-16 03:32:00,51.0,49.0,29.87,ESE,104,0.0,1.0,93,0.01,,,1.02,,2013-01-16 08:32:00,
2013-01-16 03:42:00,51.0,49.0,29.87,ESE,104,0.0,1.0,93,0.01,,,1.02,,2013-01-16 08:42:00,
2013-01-16 03:53:00,51.0,49.0,29.88,ESE,104,0.0,3.0,93,0.00,,,1.01,,2013-01-16 08:53:00,
2013-01-16 04:02:00,51.0,49.0,29.87,ESE,104,0.0,1.0,94,0.00,,,1.00,,2013-01-16 09:02:00,
2013-01-16 04:12:00,51.0,49.0,29.87,ESE,104,0.0,1.0,94,0.00,,,1.00,,2013-01-16 09:12:00,
2013-01-16 04:22:00,51.0,49.0,29.86,ESE,104,0.0,1.0,94,0.00,,,0.99,,2013-01-16 09:22:00,
2013-01-16 04:32:00,51.0,49.0,29.86,ESE,104,0.0,0.0,94,0.00,,,0.97,,2013-01-16 09:32:00,
2013-01-16 04:42:00,51.0,49.0,29.86,ESE,104,0.0,0.0,94,0.00,,,0.97,,2013-01-16 09:42:00,
2013-01-16 04:53:00,51.0,49.0,29.85,ESE,104,1.0,2.0,94,0.00,,,0.95,,2013-01-16 09:53:00,
2013-01-16 05:02:00,51.0,49.0,29.85,ESE,103,0.0,3.0,94,0.00,,,0.93,,2013-01-16 10:02:00,
2013-01-16 05:12:00,51.0,49.0,29.85,ESE,103,0.0,3.0,94,0.00,,,0.93,,2013-01-16 10:12:00,
2013-01-16 05:22:00,51.0,49.0,29.85,ESE,103,0.0,1.0,94,0.01,,,0.92,,2013-01-16 10:22:00,
2013-01-16 05:32:00,51.0,49.0,29.84,ESE,103,1.0,3.0,94,0.02,,,0.91,,2013-01-16 10:32:00,
2013-01-16 05:42:00,51.0,49.0,29.84,ESE,103,1.0,3.0,94,0.02,,,0.91,,2013-01-16 10:42:00,
2013-01-16 05:53:00,51.0,49.0,29.84,ESE,103,0.0,2.0,94,0.02,,,0.89,,2013-01-16 10:53:00,
2013-01-16 06:02:00,51.0,49.0,29.84,ESE,113,2.0,3.0,94,0.02,,,0.89,,2013-01-16 11:02:00,
2013-01-16 06:12:00,51.0,49.0,29.84,ESE,113,2.0,3.0,94,0.02,,,0.89,,2013-01-16 11:12:00,
2013-01-16 06:23:00,51.0,49.0,29.84,SSE,148,2.0,6.0,94,0.01,,,0.88,,2013-01-16 11:23:00,
2013-01-16 06:33:00,51.0,49.0,29.84,SSE,155,3.0,9.0,94,0.00,,,0.87,,2013-01-16 11:33:00,
2013-01-16 06:42:00,51.0,49.0,29.84,SSE,155,3.0,9.0,94,0.00,,,0.87,,2013-01-16 11:42:00,
2013-01-16 06:53:00,51.0,49.0,29.84,SSW,194,4.0,10.0,94,0.00,,,0.84,,2013-01-16 11:53:00,
2013-01-16 07:03:00,52.0,50.0,29.83,SSE,160,4.0,9.0,94,0.00,,,0.80,,2013-01-16 12:03:00,
2013-01-16 07:13:00,52.0,50.0,29.83,SSE,160,4.0,9.0,94,0.00,,,0.80,,2013-01-16 12:13:00,
2013-01-16 07:22:00,52.0,50.0,29.83,SE,129,3.0,12.0,93,0.00,,,0.78,,2013-01-16 12:22:00,
2013-01-16 07:33:00,53.0,51.0,29.84,SE,138,2.0,9.0,92,0.00,,,0.73,,2013-01-16 12:33:00,
2013-01-16 07:43:00,53.0,51.0,29.84,SE,138,2.0,9.0,92,0.00,,,0.73,,2013-01-16 12:43:00,
2013-01-16 07:53:00,53.0,51.0,29.85,SE,130,1.0,6.0,92,0.00,,,0.71,,2013-01-16 12:53:00,
2013-01-16 08:03:00,53.0,51.0,29.85,SW,227,0.0,3.0,92,0.00,,,0.69,,2013-01-16 13:03:00,
2013-01-16 08:12:00,53.0,51.0,29.85,SW,227,0.0,3.0,92,0.00,,,0.69,,2013-01-16 13:12:00,
2013-01-16 08:23:00,52.0,50.0,29.85,SW,227,0.0,3.0,92,0.02,,,0.69,,2013-01-16 13:23:00,
2013-01-16 08:33:00,52.0,50.0,29.87,SW,227,1.0,3.0,92,0.04,,,0.68,,2013-01-16 13:33:00,
2013-01-16 08:43:00,52.0,50.0,29.87,SW,227,1.0,3.0,92,0.04,,,0.68,,2013-01-16 13:43:00,
2013-01-16 08:53:00,52.0,50.0,29.88,SW,227,0.0,1.0,92,0.05,,,0.67,,2013-01-16 13:53:00,
2013-01-16 09:03:00,52.0,50.0,29.89,SW,228,1.0,3.0,92,0.08,,,0.67,,2013-01-16 14:03:00,
2013-01-16 09:12:00,52.0,50.0,29.89,SW,228,1.0,3.0,92,0.08,,,0.67,,2013-01-16 14:12:00,
2013-01-16 09:23:00,52.0,50.0,29.90,SW,229,0.0,3.0,93,0.07,,,0.67,,2013-01-16 14:23:00,
2013-01-16 09:33:00,52.0,50.0,29.91,SW,229,0.0,1.0,93,0.08,,,0.69,,2013-01-16 14:33:00,
2013-01-16 09:43:00,52.0,50.0,29.91,SW,229,0.0,1.0,93,0.08,,,0.69,,2013-01-16 14:43:00,
2013-01-16 09:53:00,52.0,50.0,29.91,SW,229,0.0,3.0,93,0.08,,,0.69,,2013-01-16 14:53:00,
2013-01-16 10:03:00,52.0,50.0,29.92,NW,315,2.0,10.0,94,0.06,,,0.69,,2013-01-16 15:03:00,
2013-01-16 10:12:00,52.0,50.0,29.92,NW,315,2.0,10.0,94,0.06,,,0.69,,2013-01-16 15:12:00,
2013-01-16 10:23:00,52.0,50.0,29.93,WNW,300,2.0,7.0,94,0.05,,,0.68,,2013-01-16 15:23:00,
2013-01-16 10:33:00,52.0,50.0,29.93,NE,38,1.0,8.0,93,0.03,,,0.68,,2013-01-16 15:33:00,
2013-01-16 10:43:00,52.0,50.0,29.93,NE,38,1.0,8.0,93,0.03,,,0.68,,2013-01-16 15:43:00,
2013-01-16 10:53:00,52.0,50.0,29.93,NE,37,0.0,3.0,94,0.02,,,0.66,,2013-01-16 15:53:00,
2013-01-16 11:03:00,52.0,50.0,29.93,NE,37,0.0,1.0,93,0.01,,,0.65,,2013-01-16 16:03:00,
2013-01-16 11:12:00,52.0,50.0,29.93,NE,37,0.0,1.0,93,0.01,,,0.65,,2013-01-16 16:12:00,
2013-01-16 11:23:00,52.0,50.0,29.92,NE,37,0.0,2.0,93,0.01,,,0.65,,2013-01-16 16:23:00,
2013-01-16 11:33:00,52.0,50.0,29.90,NE,37,1.0,2.0,93,0.00,,,0.65,,2013-01-16 16:33:00,
2013-01-16 11:43:00,52.0,50.0,29.90,NE,37,1.0,2.0,93,0.00,,,0.65,,2013-01-16 16:43:00,
2013-01-16 11:53:00,52.0,50.0,29.88,NE,38,0.0,1.0,93,0.00,,,0.63,,2013-01-16 16:53:00,
2013-01-16 12:03:00,52.0,50.0,29.87,NE,38,0.0,0.0,94,0.00,,,0.63,,2013-01-16 17:03:00,
2013-01-16 12:12:00,52.0,50.0,29.87,NE,38,0.0,0.0,94,0.00,,,0.63,,2013-01-16 17:12:00,
2013-01-16 12:23:00,53.0,51.0,29.87,NE,37,0.0,1.0,94,0.00,,,0.63,,2013-01-16 17:23:00,
2013-01-16 12:33:00,53.0,51.0,29.85,NE,38,0.0,1.0,94,0.00,,,0.63,,2013-01-16 17:33:00,
2013-01-16 12:43:00,53.0,51.0,29.85,NE,38,0.0,1.0,94,0.00,,,0.63,,2013-01-16 17:43:00,
2013-01-16 12:53:00,54.0,52.0,29.83,NE,38,1.0,2.0,94,0.00,,,0.62,,2013-01-16 17:53:00,
2013-01-16 13:03:00,54.0,52.0,29.83,NE,38,0.0,2.0,93,0.00,,,0.61,,2013-01-16 18:03:00,
2013-01-16 13:13:00,54.0,52.0,29.83,NE,38,0.0,2.0,93,0.00,,,0.61,,2013-01-16 18:13:00,
2013-01-16 13:23:00,54.0,52.0,29.82,NE,38,0.0,2.0,93,0.00,,,0.61,,2013-01-16 18:23:00,
2013-01-16 13:33:00,55.0,52.0,29.81,NE,37,1.0,3.0,90,0.00,,,0.61,,2013-01-16 18:33:00,
2013-01-16 13:42:00,55.0,52.0,29.81,NE,37,1.0,3.0,90,0.00,,,0.61,,2013-01-16 18:42:00,
2013-01-16 13:53:00,58.0,49.0,29.81,SE,126,0.0,5.0,73,0.00,,,0.61,,2013-01-16 18:53:00,
2013-01-16 14:03:00,61.0,50.0,29.80,SE,128,0.0,5.0,68,0.00,,,0.61,,2013-01-16 19:03:00,
2013-01-16 14:12:00,61.0,50.0,29.80,SE,128,0.0,5.0,68,0.00,,,0.61,,2013-01-16 19:12:00,
2013-01-16 14:23:00,62.0,50.0,29.80,ENE,60,1.0,9.0,65,0.00,,,0.60,,2013-01-16 19:23:00,
2013-01-16 14:33:00,61.0,47.0,29.80,North,0,1.0,14.0,61,0.00,,,0.60,,2013-01-16 19:33:00,
2013-01-16 14:43:00,61.0,47.0,29.80,North,0,1.0,14.0,61,0.00,,,0.60,,2013-01-16 19:43:00,
2013-01-16 14:53:00,61.0,49.0,29.81,NW,326,4.0,13.0,64,0.00,,,0.60,,2013-01-16 19:53:00,
2013-01-16 15:03:00,60.0,49.0,29.81,SW,232,1.0,12.0,66,0.00,,,0.60,,2013-01-16 20:03:00,
2013-01-16 15:12:00,60.0,49.0,29.81,SW,232,1.0,12.0,66,0.00,,,0.60,,2013-01-16 20:12:00,
2013-01-16 15:23:00,60.0,49.0,29.83,NE,48,2.0,12.0,68,0.00,,,0.59,,2013-01-16 20:23:00,
2013-01-16 15:33:00,58.0,48.0,29.83,WNW,297,2.0,7.0,70,0.00,,,0.58,,2013-01-16 20:33:00,
2013-01-16 15:43:00,58.0,48.0,29.83,WNW,297,2.0,7.0,70,0.00,,,0.58,,2013-01-16 20:43:00,
2013-01-16 15:53:00,57.0,49.0,29.84,NNW,329,2.0,12.0,74,0.00,,,0.57,,2013-01-16 20:53:00,
2013-01-16 16:03:00,56.0,49.0,29.84,NNE,28,1.0,10.0,77,0.00,,,0.54,,2013-01-16 21:03:00,
2013-01-16 16:12:00,56.0,49.0,29.84,NNE,28,1.0,10.0,77,0.00,,,0.54,,2013-01-16 21:12:00,
2013-01-16 16:22:00,56.0,50.0,29.85,NNE,28,0.0,3.0,79,0.00,,,0.51,,2013-01-16 21:22:00,
2013-01-16 16:33:00,55.0,49.0,29.85,NNE,28,0.0,3.0,79,0.00,,,0.48,,2013-01-16 21:33:00,
2013-01-16 16:43:00,55.0,49.0,29.85,NNE,28,0.0,3.0,79,0.00,,,0.48,,2013-01-16 21:43:00,
2013-01-16 16:53:00,55.0,49.0,29.86,NNE,28,0.0,1.0,79,0.00,,,0.45,,2013-01-16 21:53:00,
2013-01-16 17:03:00,54.0,48.0,29.86,NNE,28,0.0,2.0,79,0.00,,,0.43,,2013-01-16 22:03:00,
2013-01-16 17:12:00,54.0,48.0,29.86,NNE,28,0.0,2.0,79,0.00,,,0.43,,2013-01-16 22:12:00,
2013-01-16 17:23:00,54.0,48.0,29.87,NNE,28,0.0,0.0,81,0.00,,,0.41,,2013-01-16 22:23:00,
2013-01-16 17:33:00,54.0,48.0,29.87,NE,34,0.0,3.0,81,0.00,,,0.40,,2013-01-16 22:33:00,
2013-01-16 17:43:00,54.0,48.0,29.87,NE,34,0.0,3.0,81,0.00,,,0.40,,2013-01-16 22:43:00,
2013-01-16 17:53:00,53.0,48.0,29.87,SE,138,1.0,3.0,83,0.00,,,0.38,,2013-01-16 22:53:00,
2013-01-16 18:03:00,53.0,48.0,29.87,SE,142,0.0,2.0,83,0.00,,,0.37,,2013-01-16 23:03:00,
2013-01-16 18:12:00,53.0,48.0,29.87,SE,142,0.0,0.0,84,0.01,,,0.37,,2013-01-16 23:12:00,
2013-01-16 18:23:00,53.0,48.0,29.87,SE,142,0.0,0.0,84,0.01,,,0.37,,2013-01-16 23:23:00,
2013-01-16 18:32:00,52.0,48.0,29.87,SE,142,0.0,0.0,85,0.01,,,0.35,,2013-01-16 23:32:00,
2013-01-16 18:42:00,52.0,48.0,29.87,SE,142,0.0,0.0,85,0.01,,,0.35,,2013-01-16 23:42:00,
2013-01-16 18:53:00,52.0,48.0,29.87,SE,142,0.0,0.0,87,0.01,,,0.31,,2013-01-16 23:53:00,
2013-01-16 19:02:00,51.0,48.0,29.88,SE,142,0.0,0.0,88,0.01,,,0.29,,2013-01-17 00:02:00,
2013-01-16 19:12:00,51.0,48.0,29.88,SE,142,0.0,0.0,88,0.01,,,0.29,,2013-01-17 00:12:00,
2013-01-16 19:22:00,51.0,48.0,29.88,SE,142,0.0,1.0,89,0.00,,,0.28,,2013-01-17 00:22:00,
2013-01-16 19:32:00,51.0,48.0,29.89,SW,227,0.0,3.0,90,0.00,,,0.28,,2013-01-17 00:32:00,
2013-01-16 19:42:00,51.0,48.0,29.89,SW,227,0.0,3.0,90,0.00,,,0.28,,2013-01-17 00:42:00,
2013-01-16 19:53:00,51.0,48.0,29.89,SW,227,0.0,1.0,90,0.00,,,0.27,,2013-01-17 00:53:00,
2013-01-16 20:02:00,51.0,48.0,29.89,SW,227,0.0,0.0,91,0.00,,,0.27,,2013-01-17 01:02:00,
2013-01-16 20:12:00,51.0,48.0,29.89,SW,227,0.0,0.0,91,0.00,,,0.27,,2013-01-17 01:12:00,
2013-01-16 20:22:00,51.0,48.0,29.89,SW,227,0.0,0.0,91,0.00,,,0.26,,2013-01-17 01:22:00,
2013-01-16 20:33:00,51.0,48.0,29.89,SW,227,0.0,0.0,91,0.00,,,0.25,,2013-01-17 01:33:00,
2013-01-16 20:42:00,51.0,48.0,29.89,SW,227,0.0,0.0,91,0.00,,,0.25,,2013-01-17 01:42:00,
2013-01-16 20:52:00,50.0,48.0,29.91,SW,227,0.0,1.0,92,0.00,,,0.24,,2013-01-17 01:52:00,
2013-01-16 21:02:00,50.0,48.0,29.90,SW,227,0.0,3.0,92,0.00,,,0.24,,2013-01-17 02:02:00,
2013-01-16 21:12:00,50.0,48.0,29.90,SW,227,0.0,3.0,92,0.00,,,0.24,,2013-01-17 02:12:00,
2013-01-16 21:22:00,50.0,47.0,29.90,WNW,301,0.0,3.0,91,0.00,,,0.23,,2013-01-17 02:22:00,
2013-01-16 21:32:00,50.0,47.0,29.89,WNW,301,0.0,2.0,91,0.00,,,0.23,,2013-01-17 02:32:00,
2013-01-16 21:42:00,50.0,47.0,29.89,WNW,301,0.0,2.0,91,0.00,,,0.23,,2013-01-17 02:42:00,
2013-01-16 21:52:00,50.0,47.0,29.89,WNW,301,0.0,2.0,91,0.00,,,0.23,,2013-01-17 02:52:00,
2013-01-16 22:03:00,49.0,46.0,29.89,WNW,301,0.0,3.0,91,0.01,,,0.22,,2013-01-17 03:03:00,
2013-01-16 22:12:00,49.0,46.0,29.89,WNW,301,0.0,3.0,91,0.01,,,0.22,,2013-01-17 03:12:00,
2013-01-16 22:22:00,49.0,47.0,29.91,WNW,301,0.0,3.0,92,0.02,,,0.23,,2013-01-17 03:22:00,
2013-01-16 22:32:00,49.0,47.0,29.92,WNW,301,0.0,0.0,92,0.02,,,0.22,,2013-01-17 03:32:00,
2013-01-16 22:43:00,49.0,47.0,29.92,WNW,301,0.0,0.0,92,0.02,,,0.22,,2013-01-17 03:43:00,
2013-01-16 22:53:00,49.0,47.0,29.90,WNW,301,1.0,2.0,92,0.03,,,0.23,,2013-01-17 03:53:00,
2013-01-16 23:02:00,49.0,47.0,29.90,WNW,301,0.0,2.0,92,0.02,,,0.23,,2013-01-17 04:02:00,
2013-01-16 23:12:00,49.0,47.0,29.89,WNW,301,0.0,3.0,92,0.01,,,0.23,,2013-01-17 04:12:00,
2013-01-16 23:22:00,49.0,47.0,29.89,WNW,301,0.0,3.0,92,0.01,,,0.23,,2013-01-17 04:22:00,
2013-01-16 23:33:00,48.0,46.0,29.90,WNW,301,0.0,1.0,92,0.01,,,0.23,,2013-01-17 04:33:00,
2013-01-16 23:42:00,48.0,46.0,29.90,WNW,301,0.0,1.0,92,0.01,,,0.23,,2013-01-17 04:42:00,
2013-01-16 23:52:00,48.0,46.0,29.88,WNW,301,0.0,1.0,92,0.00,,,0.23,,2013-01-17 04:52:00,